Location: Girdwood
(60.9430°N, 149.1660°W)
Time: 22:09:57
(UTC-08:00)

Amateur Radio Satellites - All Passes

Search period start: 30 October 2014 21:39
Search period end: 31 October 2014 21:39
Location: Girdwood, 60.9430°N, 149.1660°W

Satellite Date Start Highest point End Downlink Frequencies (MHz)
Time Altitude Azimuth
KITSAT 1 30 Oct 21:47:11 21:54:15 35° 245° (WSW) 22:01:18 435.175 FM
HO-68 30 Oct 21:53:15 22:00:25 69° 253° (WSW) 22:07:38 435.675 MHz FM
UOSAT-12 30 Oct 21:54:19 21:58:56 52° 223° (SW) 22:03:30 437.025 FM, 437.400 FM
Oscar 11 30 Oct 22:01:03 22:05:19 63° 67° (ENE) 22:09:36 145.825 FM, Beacon 2401.500 USB
FUNcube-1 30 Oct 22:16:17 22:20:34 46° 63° (ENE) 22:24:46 145.950 - 145.970 MHz USB
AO-40 30 Oct 22:34:33 23:07:42 11° 123° (ESE) 23:35:01 Beacon 2401.320
RS-15 30 Oct 22:47:08 22:57:15 47° 120° (ESE) 23:07:26 29.354 - 29.394 USB, Beacon 29.352 USB
OPAL 30 Oct 22:53:03 22:56:01 16° 330° (NNW) 22:58:57 ?
UKube-1 30 Oct 23:01:51 23:06:02 44° 260° (W) 23:10:16 145.840 MHz, 145.915 MHz
STRAND 1 30 Oct 23:09:13 23:13:33 28° 311° (NW) 23:17:53 ?
ZACube-1 30 Oct 23:09:19 23:13:49 76° 254° (WSW) 23:18:14 437.345 MHz
MaSat-1 30 Oct 23:16:20 23:18:16 14° 114° (ESE) 23:20:07 437.345 MHz
UOSAT-12 30 Oct 23:35:26 23:38:12 16° 244° (WSW) 23:40:57 437.025 FM, 437.400 FM
Oscar 11 30 Oct 23:38:11 23:41:52 27° 268° (W) 23:45:34 145.825 FM, Beacon 2401.500 USB
HO-68 30 Oct 23:44:05 23:49:30 22° 277° (W) 23:54:58 435.675 MHz FM
FUNcube-1 30 Oct 23:52:54 23:57:05 37° 263° (W) 00:01:12 145.950 - 145.970 MHz USB
ZACube-1 31 Oct 00:48:07 00:50:58 17° 275° (W) 00:53:47 437.345 MHz
STRAND 1 31 Oct 00:49:30 00:51:19 12° 334° (NNW) 00:53:08 ?
MaSat-1 31 Oct 00:49:42 00:53:15 71° 132° (SE) 00:56:25 437.345 MHz
RS-15 31 Oct 00:57:48 01:08:46 89° 148° (SSE) 01:19:56 29.354 - 29.394 USB, Beacon 29.352 USB
JAS-1B 31 Oct 01:36:43 01:40:26 15° 77° (ENE) 01:44:27 435.800 - 435.900 CW/SSB
OPAL 31 Oct 02:08:38 02:10:07 11° 18° (NNE) 02:11:37 ?
AO-Echo 31 Oct 02:09:15 02:10:42 11° 75° (ENE) 02:12:09 ?
Oscar 19 31 Oct 02:21:34 02:25:12 19° 85° (E) 02:28:49 437.125 CW, 437.150 USB
MaSat-1 31 Oct 02:25:53 02:28:54 29° 332° (NNW) 02:31:38 437.345 MHz
AO-27 31 Oct 02:56:57 03:00:28 18° 83° (E) 03:03:57 436.795 MHz FM
Oscar 16 31 Oct 03:08:05 03:12:52 37° 96° (E) 03:17:36 437.025 USB, Beacon 2401.1428
Gurwin Techsat 1B 31 Oct 03:10:33 03:13:27 15° 80° (E) 03:16:21 435.225 FM
RS-15 31 Oct 03:10:53 03:21:51 73° 360° (N) 03:33:08 29.354 - 29.394 USB, Beacon 29.352 USB
TMSAT-1 31 Oct 03:17:28 03:19:55 13° 78° (ENE) 03:22:20 436.925 FM
JAS-1B 31 Oct 03:26:14 03:32:38 51° 100° (E) 03:40:14 435.800 - 435.900 CW/SSB
Sapphire 31 Oct 03:31:59 03:36:07 23° 113° (ESE) 03:40:16 437.095 MHz 1200 baud AX-25 AFSK
Uribyol 2 31 Oct 03:40:23 03:45:06 33° 94° (E) 03:49:47 436.500 FM
OPAL 31 Oct 03:43:37 03:47:32 23° 41° (NE) 03:51:25 ?
AO-Echo 31 Oct 03:45:49 03:50:55 44° 97° (E) 03:55:59 ?
ITAMSAT 1 31 Oct 03:48:13 03:53:03 36° 95° (E) 03:57:49 435.822 SSB
PCSat 31 Oct 03:52:53 03:57:35 31° 119° (ESE) 04:02:18 145.825 MHz
Oscar 19 31 Oct 04:00:16 04:05:26 77° 107° (ESE) 04:10:34 437.125 CW, 437.150 USB
MaSat-1 31 Oct 04:02:57 04:05:05 17° 354° (N) 04:07:05 437.345 MHz
STRAND 1 31 Oct 04:04:14 04:05:33 11° 23° (NNE) 04:06:53 ?
AO-27 31 Oct 04:35:42 04:40:58 70° 105° (ESE) 04:46:12 436.795 MHz FM
AO-7 31 Oct 04:42:54 04:48:59 22° 81° (E) 04:55:01 29.400 - 29.500 MHz
Oscar 16 31 Oct 04:47:28 04:52:30 57° 297° (WNW) 04:57:31 437.025 USB, Beacon 2401.1428
Gurwin Techsat 1B 31 Oct 04:49:22 04:54:38 57° 102° (ESE) 04:59:53 435.225 FM
TMSAT-1 31 Oct 04:55:56 05:01:09 51° 100° (E) 05:06:19 436.925 FM
Sapphire 31 Oct 05:13:24 05:18:49 71° 136° (SE) 05:24:15 437.095 MHz 1200 baud AX-25 AFSK
JAS-1B 31 Oct 05:17:13 05:23:30 57° 300° (WNW) 05:30:57 435.800 - 435.900 CW/SSB
Uribyol 2 31 Oct 05:19:47 05:24:59 65° 296° (WNW) 05:30:07 436.500 FM
OPAL 31 Oct 05:20:45 05:25:48 70° 63° (ENE) 05:30:49 ?
RS-15 31 Oct 05:23:56 05:34:59 89° 211° (SSW) 05:46:26 29.354 - 29.394 USB, Beacon 29.352 USB
AO-Echo 31 Oct 05:24:40 05:29:50 52° 299° (WNW) 05:34:59 ?
ITAMSAT 1 31 Oct 05:27:42 05:32:52 61° 297° (WNW) 05:38:01 435.822 SSB
PCSat 31 Oct 05:35:06 05:40:33 89° 141° (SE) 05:46:02 145.825 MHz
Uosat F 31 Oct 05:37:20 05:41:30 25° 90° (E) 05:45:38 435.120 FM
MaSat-1 31 Oct 05:39:03 05:41:24 21° 19° (NNE) 05:43:34 437.345 MHz
STRAND 1 31 Oct 05:39:06 05:43:14 25° 46° (NE) 05:47:23 ?
Oscar 19 31 Oct 05:40:00 05:44:28 31° 309° (NW) 05:48:54 437.125 CW, 437.150 USB
JAS-2 31 Oct 06:08:47 06:15:22 29° 83° (E) 06:21:56 435.800 - 435.900 CW/SSB, 435.910 FM
AO-27 31 Oct 06:15:33 06:20:15 34° 307° (NW) 06:24:55 436.795 MHz FM
Oscar 16 31 Oct 06:27:28 06:31:01 19° 320° (NW) 06:34:34 437.025 USB, Beacon 2401.1428
Gurwin Techsat 1B 31 Oct 06:29:35 06:34:33 41° 304° (WNW) 06:39:29 435.225 FM
AO-7 31 Oct 06:35:20 06:43:37 62° 106° (ESE) 06:51:52 29.400 - 29.500 MHz
TMSAT-1 31 Oct 06:36:03 06:41:05 44° 302° (WNW) 06:46:06 436.925 FM
Sapphire 31 Oct 06:57:11 07:02:32 55° 340° (NNW) 07:07:54 437.095 MHz 1200 baud AX-25 AFSK
Hamsat 31 Oct 06:57:57 07:01:19 23° 90° (E) 07:04:42 145.90 MHz
Uribyol 2 31 Oct 06:59:50 07:03:42 22° 318° (NW) 07:07:34 436.500 FM
OPAL 31 Oct 07:00:41 07:05:08 30° 264° (W) 07:09:34 ?
AO-Echo 31 Oct 07:04:05 07:07:39 19° 321° (NW) 07:11:13 ?
ITAMSAT 1 31 Oct 07:07:47 07:11:34 21° 319° (NW) 07:15:21 435.822 SSB
JAS-1B 31 Oct 07:08:24 07:13:12 23° 324° (NW) 07:18:33 435.800 - 435.900 CW/SSB
MaSat-1 31 Oct 07:14:26 07:17:15 75° 43° (NE) 07:19:48 437.345 MHz
Uosat F 31 Oct 07:15:48 07:20:54 82° 291° (WNW) 07:25:58 435.120 FM
STRAND 1 31 Oct 07:16:42 07:21:52 81° 68° (ENE) 07:27:04 ?
PCSat 31 Oct 07:19:10 07:24:27 49° 346° (NNW) 07:29:45 145.825 MHz
Oscar 19 31 Oct 07:20:24 07:22:28 13° 332° (NNW) 07:24:32 437.125 CW, 437.150 USB
RS-15 31 Oct 07:36:19 07:46:38 48° 239° (WSW) 07:57:19 29.354 - 29.394 USB, Beacon 29.352 USB
Saudisat 1A 31 Oct 07:40:39 07:44:23 28° 127° (SE) 07:48:09 436.775 MHz
JAS-2 31 Oct 07:53:41 08:01:31 79° 106° (ESE) 08:09:22 435.800 - 435.900 CW/SSB, 435.910 FM
AO-27 31 Oct 07:55:55 07:58:29 14° 330° (NNW) 08:01:04 436.795 MHz FM
SO-67 31 Oct 07:56:42 07:58:24 13° 85° (E) 08:00:06 435.3500 MHz FM
Gurwin Techsat 1B 31 Oct 08:10:18 08:13:22 16° 327° (NNW) 08:16:26 435.225 FM
TMSAT-1 31 Oct 08:16:41 08:19:56 17° 325° (NW) 08:23:10 436.925 FM
AO-7 31 Oct 08:28:25 08:36:29 57° 310° (NW) 08:44:32 29.400 - 29.500 MHz
Hamsat 31 Oct 08:33:31 08:37:44 72° 291° (WNW) 08:41:57 145.90 MHz
Uribyol 2 31 Oct 08:41:09 08:41:31 10° 341° (NNW) 08:41:53 436.500 FM
Sapphire 31 Oct 08:41:34 08:46:49 45° 5° (N) 08:52:03 437.095 MHz 1200 baud AX-25 AFSK
MaSat-1 31 Oct 08:50:43 08:52:10 14° 246° (WSW) 08:53:33 437.345 MHz
Uosat F 31 Oct 08:55:05 08:59:09 25° 313° (NW) 09:03:13 435.120 FM
STRAND 1 31 Oct 08:57:22 09:01:39 26° 270° (W) 09:05:59 ?
JAS-1B 31 Oct 08:59:00 09:01:50 14° 350° (N) 09:04:49 435.800 - 435.900 CW/SSB
PCSat 31 Oct 09:03:29 09:08:46 47° 11° (N) 09:14:02 145.825 MHz
HO-68 31 Oct 09:10:27 09:14:44 16° 77° (ENE) 09:18:59 435.675 MHz FM
Saudisat 1A 31 Oct 09:19:08 09:23:33 84° 149° (SSE) 09:28:00 436.775 MHz
SO-67 31 Oct 09:28:29 09:31:58 83° 105° (ESE) 09:35:26 435.3500 MHz FM
JAS-2 31 Oct 09:39:00 09:46:09 44° 309° (NW) 09:53:26 435.800 - 435.900 CW/SSB, 435.910 FM
RS-15 31 Oct 09:49:49 09:56:02 17° 267° (W) 10:02:23 29.354 - 29.394 USB, Beacon 29.352 USB
Hamsat 31 Oct 10:10:14 10:13:06 18° 312° (NW) 10:15:58 145.90 MHz
AO-7 31 Oct 10:21:05 10:27:56 30° 336° (NNW) 10:34:48 29.400 - 29.500 MHz
Sapphire 31 Oct 10:25:30 10:30:57 69° 29° (NNE) 10:36:24 437.095 MHz 1200 baud AX-25 AFSK
Uosat F 31 Oct 10:35:16 10:36:28 11° 337° (NNW) 10:37:39 435.120 FM
KITSAT 1 31 Oct 10:36:26 10:39:37 13° 95° (E) 10:42:47 435.175 FM
UKube-1 31 Oct 10:40:07 10:43:08 18° 87° (E) 10:46:08 145.840 MHz, 145.915 MHz
JAS-1B 31 Oct 10:46:55 10:50:08 15° 18° (NNE) 10:53:31 435.800 - 435.900 CW/SSB
PCSat 31 Oct 10:47:16 10:52:45 83° 35° (NE) 10:58:13 145.825 MHz
ZACube-1 31 Oct 10:50:00 10:51:31 12° 80° (E) 10:53:03 437.345 MHz
HO-68 31 Oct 10:57:13 11:04:16 53° 101° (E) 11:11:16 435.675 MHz FM
Saudisat 1A 31 Oct 10:59:03 11:03:24 55° 352° (N) 11:07:47 436.775 MHz
SO-67 31 Oct 11:02:09 11:04:32 18° 306° (NW) 11:06:55 435.3500 MHz FM
AO-27 31 Oct 11:12:38 11:13:24 10° 19° (NNE) 11:14:09 436.795 MHz FM
Oscar 11 31 Oct 11:14:38 11:18:31 31° 94° (E) 11:22:23 145.825 FM, Beacon 2401.500 USB
Oscar 16 31 Oct 11:20:39 11:23:15 14° 32° (NNE) 11:25:52 437.025 USB, Beacon 2401.1428
JAS-2 31 Oct 11:24:06 11:29:35 22° 333° (NNW) 11:35:14 435.800 - 435.900 CW/SSB, 435.910 FM
FUNcube-1 31 Oct 11:31:37 11:35:04 23° 90° (E) 11:38:26 145.950 - 145.970 MHz USB
Uribyol 2 31 Oct 11:53:45 11:56:21 14° 30° (NNE) 11:58:58 436.500 FM
AO-Echo 31 Oct 11:55:12 11:57:58 15° 33° (NNE) 12:00:46 ?
ITAMSAT 1 31 Oct 12:01:29 12:04:15 15° 31° (NNE) 12:07:01 435.822 SSB
Sapphire 31 Oct 12:09:06 12:14:19 48° 233° (SW) 12:19:31 437.095 MHz 1200 baud AX-25 AFSK
Oscar 19 31 Oct 12:10:52 12:14:44 22° 44° (NE) 12:18:36 437.125 CW, 437.150 USB
AO-7 31 Oct 12:12:21 12:18:35 25° 3° (N) 12:24:51 29.400 - 29.500 MHz
UKube-1 31 Oct 12:15:36 12:20:01 84° 108° (ESE) 12:24:24 145.840 MHz, 145.915 MHz
ZACube-1 31 Oct 12:24:42 12:28:56 57° 102° (ESE) 12:33:04 437.345 MHz
KITSAT 1 31 Oct 12:25:28 12:32:51 41° 119° (ESE) 12:40:14 435.175 FM
PCSat 31 Oct 12:30:56 12:35:51 36° 238° (WSW) 12:40:45 145.825 MHz
JAS-1B 31 Oct 12:34:07 12:39:05 32° 46° (NE) 12:44:24 435.800 - 435.900 CW/SSB
Saudisat 1A 31 Oct 12:39:03 12:43:28 62° 16° (NNE) 12:47:52 436.775 MHz
HO-68 31 Oct 12:45:09 12:52:11 58° 304° (NW) 12:59:12 435.675 MHz FM
AO-27 31 Oct 12:47:20 12:51:16 22° 43° (NE) 12:55:13 436.795 MHz FM
Oscar 11 31 Oct 12:50:44 12:54:57 53° 295° (WNW) 12:59:10 145.825 FM, Beacon 2401.500 USB
Oscar 16 31 Oct 12:56:44 13:01:25 37° 55° (NE) 13:06:06 437.025 USB, Beacon 2401.1428
ISS 31 Oct 12:59:10 13:00:31 12° 159° (SSE) 13:01:52 145.800 FM
Gurwin Techsat 1B 31 Oct 13:03:40 13:07:21 19° 39° (NE) 13:11:03 435.225 FM
FUNcube-1 31 Oct 13:07:39 13:11:55 70° 291° (WNW) 13:16:05 145.950 - 145.970 MHz USB
JAS-2 31 Oct 13:08:00 13:12:15 17° 358° (N) 13:16:38 435.800 - 435.900 CW/SSB, 435.910 FM
TMSAT-1 31 Oct 13:10:16 13:13:45 18° 38° (NE) 13:17:15 436.925 FM
SO-50 31 Oct 13:10:55 13:15:03 34° 129° (SE) 13:19:17 436.795 FM
Uribyol 2 31 Oct 13:29:53 13:34:35 35° 53° (NE) 13:39:17 436.500 FM
AO-Echo 31 Oct 13:30:49 13:35:30 38° 55° (NE) 13:40:20 ?
ITAMSAT 1 31 Oct 13:37:46 13:42:32 37° 54° (NE) 13:47:19 435.822 SSB
Oscar 19 31 Oct 13:48:17 13:53:24 69° 66° (ENE) 13:58:31 437.125 CW, 437.150 USB
Uosat F 31 Oct 13:48:26 13:49:56 11° 25° (NNE) 13:51:27 435.120 FM
UKube-1 31 Oct 13:52:17 13:55:49 24° 309° (NW) 13:59:20 145.840 MHz, 145.915 MHz
Sapphire 31 Oct 13:53:57 13:56:35 14° 255° (WSW) 13:59:13 437.095 MHz 1200 baud AX-25 AFSK
UOSAT-12 31 Oct 13:55:46 13:58:41 17° 117° (ESE) 14:01:38 437.025 FM, 437.400 FM
ZACube-1 31 Oct 14:01:25 14:05:11 30° 303° (WNW) 14:08:51 437.345 MHz
AO-7 31 Oct 14:02:14 14:09:21 34° 30° (NNE) 14:16:30 29.400 - 29.500 MHz
Saudisat 1A 31 Oct 14:18:45 14:23:08 61° 218° (SW) 14:27:30 436.775 MHz
KITSAT 1 31 Oct 14:19:34 14:27:41 89° 144° (SE) 14:35:50 435.175 FM
JAS-1B 31 Oct 14:23:40 14:29:21 81° 252° (WSW) 14:35:26 435.800 - 435.900 CW/SSB
AO-27 31 Oct 14:24:52 14:30:03 67° 65° (ENE) 14:35:17 436.795 MHz FM
Oscar 11 31 Oct 14:27:51 14:30:22 15° 317° (NW) 14:32:51 145.825 FM, Beacon 2401.500 USB
HO-68 31 Oct 14:33:02 14:38:47 27° 329° (NNW) 14:44:31 435.675 MHz FM
ISS 31 Oct 14:34:03 14:36:19 17° 179° (S) 14:38:35 145.800 FM
Oscar 16 31 Oct 14:35:31 14:40:37 62° 256° (WSW) 14:45:45 437.025 USB, Beacon 2401.1428
Gurwin Techsat 1B 31 Oct 14:41:15 14:46:25 55° 62° (ENE) 14:51:38 435.225 FM
FUNcube-1 31 Oct 14:44:47 14:47:40 18° 313° (NW) 14:50:31 145.950 - 145.970 MHz USB
TMSAT-1 31 Oct 14:47:35 14:52:42 50° 60° (ENE) 14:57:50 436.925 FM
JAS-2 31 Oct 14:49:53 14:54:51 21° 23° (NNE) 15:00:04 435.800 - 435.900 CW/SSB, 435.910 FM
SO-50 31 Oct 14:50:39 14:55:18 87° 332° (NNW) 15:00:06 436.795 FM
Uribyol 2 31 Oct 15:08:37 15:13:50 68° 255° (WSW) 15:19:05 436.500 FM
AO-Echo 31 Oct 15:09:04 15:14:07 61° 258° (WSW) 15:19:22 ?
ITAMSAT 1 31 Oct 15:16:40 15:21:52 64° 256° (WSW) 15:27:07 435.822 SSB
Uosat F 31 Oct 15:23:07 15:27:18 27° 48° (NE) 15:31:29 435.120 FM
Oscar 19 31 Oct 15:28:41 15:33:12 30° 268° (W) 15:37:44 437.125 CW, 437.150 USB
UOSAT-12 31 Oct 15:33:24 15:37:59 54° 138° (SE) 15:42:38 437.025 FM, 437.400 FM
AO-7 31 Oct 15:52:55 16:01:06 68° 55° (NE) 16:09:21 29.400 - 29.500 MHz
Saudisat 1A 31 Oct 15:58:58 16:02:01 18° 240° (WSW) 16:05:03 436.775 MHz
AO-27 31 Oct 16:05:18 16:10:00 32° 267° (W) 16:14:43 436.795 MHz FM
ISS 31 Oct 16:10:29 16:12:07 13° 199° (SSW) 16:13:46 145.800 FM
KITSAT 1 31 Oct 16:15:40 16:23:43 63° 352° (N) 16:31:46 435.175 FM
JAS-1B 31 Oct 16:17:04 16:21:16 21° 277° (W) 16:25:39 435.800 - 435.900 CW/SSB
Oscar 16 31 Oct 16:18:01 16:21:03 16° 278° (W) 16:24:06 437.025 USB, Beacon 2401.1428
HO-68 31 Oct 16:19:55 16:24:28 18° 355° (N) 16:29:01 435.675 MHz FM
Gurwin Techsat 1B 31 Oct 16:21:38 16:26:38 40° 264° (W) 16:31:40 435.225 FM
Hamsat 31 Oct 16:27:14 16:29:38 15° 45° (NE) 16:32:02 145.90 MHz
TMSAT-1 31 Oct 16:27:41 16:32:46 45° 262° (W) 16:37:53 436.925 FM
SO-50 31 Oct 16:31:36 16:36:13 56° 355° (N) 16:40:59 436.795 FM
JAS-2 31 Oct 16:31:49 16:38:07 39° 48° (NE) 16:45:00 435.800 - 435.900 CW/SSB, 435.910 FM
Oscar 10/S400 31 Oct 16:40:46 16:55:47 23° 157° (SSE) 17:27:10 145.825 - 145.975 CW/USB, Beacon 145.810 USB
Uribyol 2 31 Oct 16:50:53 16:54:19 17° 277° (W) 16:57:46 436.500 FM
AO-Echo 31 Oct 16:51:01 16:54:02 15° 280° (W) 16:57:06 ?
ITAMSAT 1 31 Oct 16:59:14 17:02:27 16° 278° (W) 17:05:40 435.822 SSB
Uosat F 31 Oct 17:00:33 17:05:37 89° 70° (ENE) 17:10:43 435.120 FM
UOSAT-12 31 Oct 17:13:26 17:18:10 68° 341° (NNW) 17:22:56 437.025 FM, 437.400 FM
AO-7 31 Oct 17:46:24 17:54:22 49° 260° (W) 18:02:24 29.400 - 29.500 MHz
Hamsat 31 Oct 18:00:45 18:04:50 56° 66° (ENE) 18:08:57 145.90 MHz
HO-68 31 Oct 18:04:51 18:09:58 22° 21° (NNE) 18:15:06 435.675 MHz FM
KITSAT 1 31 Oct 18:11:58 18:20:05 70° 20° (NNE) 18:28:10 435.175 FM
SO-50 31 Oct 18:12:32 18:17:17 69° 19° (NNE) 18:22:08 436.795 FM
TMSAT-1 31 Oct 18:12:35 18:14:08 11° 285° (WNW) 18:15:42 436.925 FM
JAS-2 31 Oct 18:15:52 18:22:38 83° 252° (WSW) 18:30:15 435.800 - 435.900 CW/SSB, 435.910 FM
SO-67 31 Oct 18:38:23 18:41:10 23° 58° (ENE) 18:43:57 435.3500 MHz FM
Uosat F 31 Oct 18:41:08 18:45:06 23° 272° (W) 18:49:06 435.120 FM
UOSAT-12 31 Oct 18:54:07 18:58:49 56° 5° (N) 19:03:30 437.025 FM, 437.400 FM
OPAL 31 Oct 18:59:19 19:03:48 32° 97° (E) 19:08:14 ?
STRAND 1 31 Oct 19:18:08 19:20:47 14° 80° (E) 19:23:24 ?
Hamsat 31 Oct 19:37:26 19:41:05 28° 267° (W) 19:44:45 145.90 MHz
AO-7 31 Oct 19:44:48 19:49:30 16° 285° (WNW) 19:54:13 29.400 - 29.500 MHz
HO-68 31 Oct 19:49:32 19:56:07 41° 46° (NE) 20:02:43 435.675 MHz FM
SO-50 31 Oct 19:53:12 19:57:52 54° 222° (SW) 20:02:37 436.795 FM
JAS-2 31 Oct 20:03:08 20:08:51 28° 277° (W) 20:15:06 435.800 - 435.900 CW/SSB, 435.910 FM
KITSAT 1 31 Oct 20:07:41 20:15:42 69° 226° (SW) 20:23:41 435.175 FM
RS-15 31 Oct 20:09:46 20:12:54 12° 87° (E) 20:16:03 29.354 - 29.394 USB, Beacon 29.352 USB
SO-67 31 Oct 20:10:31 20:13:55 56° 258° (WSW) 20:17:20 435.3500 MHz FM
UKube-1 31 Oct 20:11:01 20:13:39 16° 42° (NE) 20:16:17 145.840 MHz, 145.915 MHz
ZACube-1 31 Oct 20:22:27 20:23:44 11° 37° (NE) 20:25:01 437.345 MHz
UOSAT-12 31 Oct 20:34:33 20:39:20 88° 28° (NNE) 20:44:05 437.025 FM, 437.400 FM
OPAL 31 Oct 20:38:08 20:43:04 64° 299° (WNW) 20:47:58 ?
Oscar 11 31 Oct 20:44:41 20:47:56 21° 50° (NE) 20:51:11 145.825 FM, Beacon 2401.500 USB
STRAND 1 31 Oct 20:56:03 21:01:10 56° 102° (ESE) 21:06:13 ?
FUNcube-1 31 Oct 21:03:02 21:05:59 18° 47° (NE) 21:08:53 145.950 - 145.970 MHz USB
